Terminal Aerodrome Forecast
Issued by NWS Cheyenne, WY

Home | Current Version | Previous Version | Text Only | Print | Product List | Glossary On
Versions: 1 2 3 4 5 6 7 8 9 10 11 12 13 14 15 16 17 18 19 20 21 22 23 24 25 26 27 28 29 30 31 32 33 34 35 36 37 38
000
FTUS45 KCYS 280500
TAFCYS
TAF
KCYS 280520Z 2806/2906 31010KT P6SM VCSH BKN090
     FM280900 28010KT 3SM BR BKN025
     FM281500 34012KT P6SM BKN045
     FM281900 33010G18KT P6SM VCTS BKN050CB=

USA.gov is the U.S. government's official web portal to all federal, state and local government web resources and services.